EW2664 Weather Reports


Display with metric or nautical units.
time (UTC)temp
F
wind
direction
speed
MPH
gust
MPH
rain 1hr
in
rain 24hr
in
rain mn
in
humidity
%
barometer
mb
20260508121512 76 316 0.0 3.0 0.00 0.00 0.00 77 1015.8
20260508120004 74 286 0.0 3.0 0.00 0.00 0.00 79 1015.6
20260508114507 73 346 0.0 3.0 0.00 0.00 0.00 81 1015.4
20260508113014 71 15 0.0 4.0 0.00 0.00 0.00 83 1015.4
20260508111516 70 11 1.0 2.0 0.00 0.00 0.00 84 1015.2
20260508110014 70 350 0.0 2.0 0.00 0.00 0.00 84 1014.9
20260508104505 70 336 0.0 2.0 0.00 0.00 0.00 84 1014.6
20260508103010 70 346 0.0 2.0 0.00 0.00 0.00 84 1014.4
20260508101517 70 346 0.0 2.0 0.00 0.00 0.00 83 1014.3
20260508100024 71 344 0.0 2.0 0.00 0.00 0.00 83 1014.2
20260508094519 71 326 0.0 2.0 0.00 0.00 0.00 83 1014.1
20260508093010 71 32 0.0 3.0 0.00 0.00 0.00 83 1014.2
20260508091517 71 327 0.0 2.0 0.00 0.00 0.00 83 1014.1
20260508090018 71 330 0.0 2.0 0.00 0.00 0.00 83 1014.1
20260508084518 72 326 0.0 4.0 0.00 0.00 0.00 82 1014.0
20260508083020 72 285 0.0 2.0 0.00 0.00 0.00 82 1014.1
20260508081516 73 254 0.0 2.0 0.00 0.00 0.00 81 1014.0
20260508080033 73 261 1.0 2.0 0.00 0.00 0.00 79 1013.9
20260508074520 74 290 0.0 2.0 0.00 0.00 0.00 78 1013.9
20260508073022 74 5 0.0 2.0 0.00 0.00 0.00 77 1013.9
20260508071514 75 321 0.0 2.0 0.00 0.00 0.00 75 1014.0
20260508070021 75 337 0.0 2.0 0.00 0.00 0.00 74 1014.1
20260508064536 75 273 0.0 2.0 0.00 0.00 0.00 72 1014.0
20260508063022 76 294 0.0 2.0 0.00 0.00 0.00 72 1014.2
20260508061523 76 322 0.0 2.0 0.00 0.00 0.00 71 1014.2
20260508060017 77 351 0.0 2.0 0.00 0.00 0.00 72 1014.3
20260508054537 77 346 0.0 3.0 0.00 0.00 0.00 75 1014.6
20260508053024 78 327 0.0 2.0 0.00 0.00 0.00 79 1014.7
20260508051522 78 5 1.0 4.0 0.00 0.00 0.00 80 1014.6
20260508050014 79 331 0.0 2.0 0.00 0.00 0.00 80 1014.6
20260508044520 79 321 0.0 3.0 0.00 0.00 0.00 80 1014.6
20260508043024 80 116 0.0 0.0 0.00 0.00 0.00 79 1014.6
20260508041524 80 116 0.0 1.0 0.00 0.00 0.00 78 1014.6
20260508040040 80 116 0.0 0.0 0.00 0.00 0.00 77 1014.6
20260508034519 81 116 0.0 0.0 0.00 0.00 0.00 75 1014.8
20260508033022 81 116 0.0 2.0 0.00 0.00 0.00 73 1014.8
20260508031524 81 116 0.0 2.0 0.00 0.00 0.00 73 1014.8
20260508030024 81 145 0.0 2.0 0.00 0.00 0.00 72 1014.9
20260508024527 81 142 0.0 2.0 0.00 0.00 0.00 73 1014.8
20260508023018 82 119 0.0 2.0 0.00 0.00 0.00 73 1014.5
20260508021523 82 92 0.0 2.0 0.00 0.00 0.00 73 1014.6
20260508020026 82 107 0.0 3.0 0.00 0.00 0.00 71 1014.6
20260508014524 82 78 1.0 2.0 0.00 0.00 0.00 71 1014.5
20260508013017 83 85 0.0 2.0 0.00 0.00 0.00 70 1014.5
20260508011523 83 117 0.0 2.0 0.00 0.00 0.00 69 1014.4
20260508010029 83 99 1.0 4.0 0.00 0.00 0.00 69 1014.3
20260508004510 84 169 1.0 2.0 0.00 0.00 0.00 67 1014.1
20260508003014 84 94 0.0 4.0 0.00 0.00 0.00 61 1014.1
20260508001519 85 157 0.0 3.0 0.00 0.00 0.00 60 1013.8
20260508000005 85 125 0.0 2.0 0.00 0.00 0.00 61 1013.7
20260507234511 86 138 1.0 2.0 0.00 0.00 0.00 58 1013.8
20260507233014 87 142 0.0 1.0 0.00 0.00 0.00 61 1013.7
20260507231515 87 69 0.0 2.0 0.00 0.00 0.00 60 1013.5
20260507230024 88 80 0.0 3.0 0.00 0.00 0.00 60 1013.4
20260507224508 88 165 0.0 2.0 0.00 0.00 0.00 59 1013.4
20260507223010 89 129 1.0 4.0 0.00 0.00 0.00 59 1013.3
20260507221522 89 141 1.0 4.0 0.00 0.00 0.00 57 1013.3
20260507220021 90 107 2.0 5.0 0.00 0.00 0.00 53 1013.1
20260507214503 91 151 3.0 9.0 0.00 0.00 0.00 50 1013.1
20260507213016 91 156 1.0 4.0 0.00 0.00 0.00 53 1013.0
20260507211517 92 148 1.0 5.0 0.00 0.00 0.00 52 1012.9
20260507210025 92 146 1.0 4.0 0.00 0.00 0.00 51 1013.2
20260507204522 93 140 1.0 4.0 0.00 0.00 0.00 50 1013.2
20260507203008 95 84 4.0 8.0 0.00 0.00 0.00 45 1013.3
20260507201511 95 123 0.0 3.0 0.00 0.00 0.00 40 1013.4
20260507200018 95 86 1.0 3.0 0.00 0.00 0.00 39 1013.4
20260507194531 94 101 1.0 4.0 0.00 0.00 0.00 39 1013.7
20260507193024 96 339 0.0 3.0 0.00 0.00 0.00 39 1013.8
20260507191508 96 240 1.0 2.0 0.00 0.00 0.00 41 1014.1
20260507190019 95 279 0.0 3.0 0.00 0.00 0.00 40 1014.3
20260507184526 95 171 1.0 2.0 0.00 0.00 0.00 40 1014.4
20260507183030 94 103 1.0 4.0 0.00 0.00 0.00 39 1014.7
20260507181506 94 263 1.0 2.0 0.00 0.00 0.00 42 1015.0
20260507180018 94 214 1.0 3.0 0.00 0.00 0.00 43 1015.1
20260507174519 93 280 0.0 4.0 0.00 0.00 0.00 41 1015.3
20260507173040 93 288 0.0 4.0 0.00 0.00 0.00 38 1015.6
20260507171529 92 172 0.0 2.0 0.00 0.00 0.00 40 1015.7
20260507170019 91 191 0.0 2.0 0.00 0.00 0.00 46 1015.8
20260507164522 90 221 0.0 2.0 0.00 0.00 0.00 46 1016.0
20260507163020 90 175 0.0 3.0 0.00 0.00 0.00 44 1016.3
20260507161526 90 59 0.0 2.0 0.00 0.00 0.00 45 1016.5
20260507160028 89 208 0.0 2.0 0.00 0.00 0.00 49 1016.8
20260507154515 88 204 0.0 2.0 0.00 0.00 0.00 55 1017.0
20260507153020 87 265 0.0 3.0 0.00 0.00 0.00 56 1016.9
20260507151524 86 262 0.0 2.0 0.00 0.00 0.00 58 1017.1
20260507150032 85 286 0.0 2.0 0.00 0.00 0.00 61 1017.1
20260507144512 85 189 0.0 2.0 0.00 0.00 0.00 63 1017.2
20260507143022 84 252 0.0 2.0 0.00 0.00 0.00 68 1017.2
20260507141523 84 171 0.0 0.0 0.00 0.00 0.00 67 1017.0
20260507140023 83 234 0.0 4.0 0.00 0.00 0.00 69 1017.1
20260507134526 82 234 0.0 0.0 0.00 0.00 0.00 71 1017.0
20260507133021 82 104 0.0 2.0 0.00 0.00 0.00 72 1017.1
20260507131514 80 82 0.0 2.0 0.00 0.00 0.00 75 1017.1
20260507130004 79 302 0.0 0.0 0.00 0.00 0.00 76 1017.0
20260507124513 78 242 0.0 2.0 0.00 0.00 0.00 77 1017.0
20260507123012 77 333 0.0 1.0 0.00 0.00 0.00 79 1017.0